OKEAN O

Satellite information

Favourite Embed

Satellite Type and Status

PAYLOADIN ORBIT

Key statistics

Satellite OKEAN O at a glance.

Uptime

9588

Days in orbit

Revolutions

≈ 14.8

Per day

Orbit

SSO

Sun Synchronous Orbit

Inclination

98.0

Latest

Satellite identification and parameters

Extended collection of information and parameters for OKEAN O.

Object identification

Identified? True

Debris? False

Object name: OKEAN O

International designator: 1999-039A

Object number (NORAD): 25860

Object ID (CCSDS): 25860

Country: COMMONWEALTH OF INDEPENDENT STATES (CIS)

Current information (Y/N): Y

RCS size: LARGE

Orbital parameters

Period: 97.296 minutes

Inclination: 97.9691 deg

SMA: 7007.409 km

Apoapsis: 630.659 km

Periapsis: 627.889 km

RAAN: 345.0997 deg

Eccentricy: 0.00019766

Argument of periapsis: 89.9269 deg

Mean anomaly: 270.2169 deg

Mean motion: 14.80016469 rev/day

Mean motion (dot): 0.0000116 rev/day2

B* drag term: 0.00016017521 1/REarth

Two-line elements (TLE)

Creation date: Oct. 16, 2025, 2:37 a.m.

Reference frame: TEME

Reference center: EARTH

Epoch: Oct. 15, 2025, 10:04 p.m. UTC

TLE line 0: 0 OKEAN O

TLE line 1: 1 25860U 99039A 25288.92001030 .00001160 00000-0 16018-3 0 9998

TLE line 2: 2 25860 97.9691 345.0997 0001977 89.9269 270.2169 14.80016469412977

Live tracking on map

Real-time ground track for satellite OKEAN O.

In-orbit conjunctions

A list of the most updated potential collisions computed for object OKEAN O.

Target Orbit TCA Probability of collision Miss distance Type
PEGASUS DEB LEO 2025-06-13 20:05:05 0.0001005626 327.0 (m) DEBRIS
ATLAS 41E DEB SSO 2025-05-22 00:53:43 0.0006878689 270.0 (m) DEBRIS
CZ-6A DEB LEO 2025-03-21 17:16:29 0.0001515688 162.0 (m) DEBRIS
FENGYUN 1C DEB SSO 2024-11-15 07:17:42 0.0001426938 430.0 (m) DEBRIS

Associated space launch

Okean-O was a joint Ukrainian and Russian remote sensing satellite program designed as a follow on to the Okean-O1 series. It was designed to gather remote sensing data crucial for research of natural resources of the Earth and world oceans. The mission also included ecological monitoring and management of externalities (weather forecast, hazards prevention).

OKEAN O was lifted into orbit during the mission ‘Zenit-2 | Okean-O’, on board a Zenit-2 space rocket.

The launch took place on July 17, 1999, 5:38 a.m. from 45/1.

For more information about the launch, click the button.

Launch to space Zenit-2 | Okean-O
Zenit-2 | Okean-O

Agency: N/A

Status: Launch Successful

Launch date: July 17, 1999, 5:38 a.m. UTC

Rocket: Zenit-2

Launch pad: 45/1

Location: Baikonur Cosmodrome, Republic of Kazakhstan

...

Latest news about this satellite

There are no fresh news available about this satellite. Check back as we update our databases every day.


Newsletter sign-up

Weekly statistics, charts and insights to help you stay on top of the space industry.